Powrót do katalogu

MAGION 2

AktywnyNaukaPO
NORAD 20281·PAYLOAD·🇨🇿 Czechia

Wystrzelony Sep 28, 1989 z Plesetsk Cosmodrome

Loading…

Następne Przeloty (najbliższe 24 godziny)

TLE

ŚwieżeSource: Space-Track

Epoka: Sep 14, 2026, 14:29 UTC

1 20281U 89080B   26257.60414460  .00000494  00000-0  13416-3 0  9990
2 20281  82.6036 313.8622 1172642 107.3967 265.8596 12.63119875693362

Śledź MAGION 2 w czasie rzeczywistym z AllMySat

Download on the App Store